{"data":{"norad_id":65512,"epoch":"2026-09-20T22:25:27.680160Z","epoch_age_seconds":74398,"freshness":"FRESH","line1":"1 65512U 25198W   26263.93434815  .00013297  00000+0  40409-3 0  9991","line2":"2 65512  53.1532  79.7950 0003131  87.0708 273.0653 15.34389971 58576","mean_motion":15.34389971,"eccentricity":0.0003131,"inclination_deg":53.1532,"raan_deg":79.795,"arg_perigee_deg":87.0708,"mean_anomaly_deg":273.0653,"bstar":0.00040409,"rev_number":5857,"period_min":93.848371484175,"perigee_km":460.59117225874,"apogee_km":464.87492508322,"semimajor_km":6840.870048671,"source":"CELESTRAK","updated_at":"2026-09-21T09:00:35.645469Z"}}